Weather History for EBDT - November, 2012

Change the Weather History Date:

Thursday, November 22, 2012

  Actual Average Record
Temperature  
Mean Temperature 46 °F -  
Max Temperature 52 °F 45 °F 57 °F (2007)
Min Temperature 41 °F 38 °F 32 °F (1996)
Degree Days  
Heating Degree Days 18    
Moisture  
Dew Point 41 °F    
Average Humidity 81    
Maximum Humidity 93    
Minimum Humidity 64    
Precipitation  
Precipitation 0.00 in - - ()
Sea Level Pressure  
Sea Level Pressure 30.12 in    
Wind  
Wind Speed 8 mph ()    
Max Wind Speed 14 mph    
Max Gust Speed -    
Visibility 7.7 miles    
Events      
Averages and records for this station are not official NWS values.
T = Trace of Precipitation, MM = Missing Value Source: Averaged Metar Reports

Daily Weather History Graph

Daily Weather History Graph

Search for Another Location

Airport or City:

Trip Planner

Search our weather history database for the weather conditions in past years. The results will help you decide how hot, cold, wet, or windy it might be!

Date:

Astronomy

Nov. 22, 2012 Rise Set
Actual Time 8:07 AM CET 4:43 PM CET
Civil Twilight 7:30 AM CET 5:20 PM CET
Nautical Twilight 6:49 AM CET 6:01 PM CET
Astronomical Twilight 6:10 AM CET 6:41 PM CET
Moon 1:53 PM CET (11/22) 1:36 AM CET (11/22)
Length of Visible Light 9h 50m
Length of Day
8h 35m
Waxing Gibbous, 69% of the Moon is Illuminated
Nov 22
Waxing Gibbous
Nov 28
Full
Dec 6
Last Quarter
Dec 13
New
Dec 20
First Quarter

Hourly Weather History & Observations

Time (CET) Temp. Windchill Dew Point Humidity Pressure Visibility Wind Dir Wind Speed Gust Speed Precip Events Conditions
12:25 AM 46.4 °F 41.9 °F 41.0 °F 81% 30.09 in 6.2 mi SW 9.2 mph - N/A   Clear
1:00 AM 47 °F - 42 °F 75% 30.11 in 18 mi SW 8.9 mph - -  
1:25 AM 46.4 °F 42.9 °F 41.0 °F 81% 30.09 in 6.2 mi SSW 6.9 mph - N/A   Clear
2:25 AM 44.6 °F 40.7 °F 41.0 °F 87% 30.12 in 6.2 mi SSW 6.9 mph - N/A   Clear
3:25 AM 42.8 °F 40.1 °F 41.0 °F 93% 30.12 in 6.2 mi South 4.6 mph - N/A   Partly Cloudy
4:00 AM 44 °F - 41 °F 84% 30.15 in 16 mi SSW 6.7 mph - -   Mostly Cloudy
4:25 AM 44.6 °F 41.4 °F 41.0 °F 87% 30.12 in 6.2 mi SSW 5.8 mph - N/A   Mostly Cloudy
5:25 AM 44.6 °F 40.7 °F 41.0 °F 87% 30.15 in 6.2 mi SSW 6.9 mph - N/A   Scattered Clouds
6:25 AM 42.8 °F 38.0 °F 41.0 °F 93% 30.15 in 6.2 mi South 8.1 mph - N/A   Clear
7:00 AM 43 °F - 40 °F 86% 30.17 in 10 mi South 6.7 mph - -  
7:25 AM 42.8 °F 38.6 °F 39.2 °F 87% 30.15 in 6.2 mi South 6.9 mph - N/A   Partly Cloudy
8:25 AM 41.0 °F 36.4 °F 39.2 °F 93% 30.15 in 5.0 mi South 6.9 mph - N/A   Clear
9:25 AM 44.6 °F 39.2 °F 41.0 °F 87% 30.15 in 6.2 mi South 10.4 mph - N/A   Clear
10:00 AM 46 °F - 41 °F 78% 30.19 in 11 mi South 8.9 mph - -  
10:25 AM 46.4 °F 41.1 °F 41.0 °F 81% 30.18 in 6.2 mi South 11.5 mph - N/A   Clear
11:25 AM 48.2 °F - 42.8 °F 82% 30.18 in 6.2 mi South 11.5 mph - N/A   Clear
12:25 PM 50.0 °F - 42.8 °F 76% 30.15 in 6.2 mi South 11.5 mph - N/A   Partly Cloudy
1:00 PM 52 °F - 43 °F 64% 30.16 in 14 mi South 13.4 mph - -   Scattered Clouds
1:25 PM 51.8 °F - 42.8 °F 71% 30.12 in 6.2 mi South 13.8 mph - N/A   Partly Cloudy
2:25 PM 51.8 °F - 42.8 °F 71% 30.12 in 6.2 mi South 13.8 mph - N/A   Partly Cloudy
3:25 PM 51.8 °F - 41.0 °F 67% 30.09 in 6.2 mi South 12.7 mph - N/A   Partly Cloudy
4:00 PM 50 °F - 42 °F 64% 30.13 in 22 mi South 11.2 mph - -   Scattered Clouds
4:25 PM 48.2 °F - 41.0 °F 76% 30.12 in 6.2 mi South 13.8 mph - N/A   Partly Cloudy
5:25 PM 46.4 °F 42.4 °F 41.0 °F 81% 30.09 in 6.2 mi South 8.1 mph - N/A   Clear
6:25 PM 44.6 °F 39.2 °F 39.2 °F 81% 30.09 in 6.2 mi South 10.4 mph - N/A   Clear
7:00 PM 44 °F - 39 °F 76% 30.10 in 25 mi South 11.2 mph - -  
7:25 PM 44.6 °F 39.2 °F 39.2 °F 81% 30.06 in 6.2 mi South 10.4 mph - N/A   Clear
8:25 PM 42.8 °F 38.0 °F 39.2 °F 87% 30.06 in 6.2 mi South 8.1 mph - N/A   Clear
9:25 PM 41.0 °F 35.2 °F 37.4 °F 87% 30.06 in 6.2 mi South 9.2 mph - N/A   Clear
10:00 PM 42 °F - 38 °F 81% 30.07 in 15 mi South 8.9 mph - -  
10:25 PM 41.0 °F 35.8 °F 37.4 °F 87% 30.04 in 6.2 mi South 8.1 mph - N/A   Clear
11:25 PM 42.8 °F 37.0 °F 39.2 °F 87% 30.04 in 6.2 mi South 10.4 mph - N/A   Clear